Location: Ore Lake
(42.4733°N, 83.8017°W)
Time: 02:33:10
(UTC-04:00)

Daily predictions for brighter satellites

Satellite Brightness Start Highest point End
(mag) Time Altitude Azimuth Time Altitude Azimuth Time Altitude Azimuth
COSMOS 2455 3.9 00:00:59 10° NNW 00:06:24 35° NE 00:06:24 35° NE
Cosmos 2333 Rocket 2.6 00:07:42 59° NNW 00:07:42 59° NNW 00:12:31 10° NNE
NOSS 3-2 (A) 4.1 00:01:45 10° NW 00:09:11 60° WSW 00:09:38 59° SW
BREEZE-M (TANK) 4.3 00:03:07 10° WNW 00:09:16 41° WNW 00:09:16 41° WNW
Terra 3.3 00:12:26 33° WNW 00:12:26 33° WNW 00:15:40 10° NNW
H-2A R/B 4.2 00:20:05 16° W 00:20:09 16° W 00:23:17 10° NW
Cosmos 2237 Rocket 3.0 00:27:23 47° N 00:27:23 47° N 00:31:27 10° NNE
ATLAS 3B R/B 4.4 00:22:43 10° WNW 00:26:48 17° WSW 00:26:52 17° WSW
Cosmos 2181 Rocket 4.3 00:22:06 10° NNW 00:27:49 65° NW 00:27:49 65° NW
Cosmos 1709 Rocket 4.5 00:30:20 54° WNW 00:30:20 54° WNW 00:36:07 10° N
Cosmos 1980 4.5 00:33:15 49° NNW 00:33:15 49° NNW 00:37:45 10° NNE
H-2A R/B 4.5 00:44:05 20° NW 00:44:05 20° NW 00:45:42 10° NNW
Cosmos 2278 Rocket 4.0 00:59:55 10° NW 01:02:46 24° WNW 01:02:46 24° WNW
Mayak 1.6 01:11:12 10° NNE 01:11:52 14° NNE 01:11:52 14° NNE
CENTAUR R/B 3.2 01:10:37 10° NW 01:17:32 64° W 01:17:32 64° W
CZ-2C R/B 3.9 01:19:44 10° N 01:23:15 38° NNW 01:23:15 38° NNW
BREEZE-M DEB (TANK) 4.5 01:22:18 10° W 01:30:19 37° NNW 01:30:19 37° NNW
USA 215 3.7 01:31:04 55° NE 01:31:20 56° NNE 01:37:42 10° NW
SL-16 R/B 3.4 01:35:35 38° NNW 01:35:35 38° NNW 01:39:30 10° NNE
COSMOS 2455 4.5 01:46:49 10° NW 01:49:32 26° WNW 01:49:32 26° WNW
Cosmos 1943 Rocket 3.7 01:48:08 10° N 01:52:19 30° NE 01:52:19 30° NE
ATLAS CENTAUR R/B 4.0 01:44:37 10° NW 01:50:49 38° NW 01:50:49 38° NW
Cosmos 2369 Rocket 3.4 02:07:05 10° NNW 02:10:38 39° NNW 02:10:38 39° NNW
Cosmos 1943 4.2 02:26:52 43° NNE 02:26:52 43° NNE 02:30:36 10° NNE
Cosmos 2366 rocket 4.4 02:31:02 59° N 02:31:02 59° N 02:36:07 10° N
Cosmos 1727 Rocket 4.4 02:28:52 10° N 02:33:41 57° N 02:33:41 57° N
Lacrosse 5 4.4 02:58:51 10° NNW 03:02:28 19° NNE 03:06:05 10° ENE
USA 229 DEB 4.4 02:59:37 10° NNW 03:06:37 54° NE 03:13:45 10° SE
USA 229 4.4 02:59:43 10° NNW 03:06:43 54° NE 03:13:50 10° SE
NPP 4.3 03:04:50 10° NNE 03:09:18 51° ENE 03:09:18 51° ENE
Cosmos 841 Rocket 4.2 03:24:38 47° NNW 03:24:38 47° NNW 03:28:32 10° NNE
COSMOS 2406 3.9 03:25:16 44° E 03:25:16 44° E 03:30:27 10° NE
Cosmos 2123 Rocket 4.4 03:19:07 10° N 03:25:19 59° E 03:26:21 52° ESE
Cosmos 1821 Rocket 3.9 03:26:21 86° NE 03:26:21 86° NE 03:32:29 10° N
Resurs 1-4 Rocket 2.9 03:24:30 10° NNE 03:29:32 43° E 03:29:32 43° E
ADEOS Rocket 2.8 03:24:19 10° NNE 03:29:13 72° N 03:29:13 72° N
SL-16 R/B 2.7 03:33:18 53° SE 03:34:42 69° ENE 03:40:53 10° N
IRS-P3 4.3 03:30:36 10° NNE 03:35:19 68° N 03:35:19 68° N
USA 32 4.3 03:31:07 10° N 03:35:29 62° N 03:35:29 62° N
Cosmos 1943 Rocket 3.9 03:31:45 10° NW 03:33:47 21° NW 03:33:47 21° NW
Cosmos 1934 Rocket 3.8 03:37:07 80° SE 03:37:19 82° E 03:43:24 10° N
Cosmos 1656 Rocket 3.8 03:35:01 10° NNW 03:39:55 67° NW 03:39:55 67° NW
ARIANE 5 R/B 3.2 03:36:30 10° NNE 03:41:34 46° E 03:41:55 45° ESE
Meteor 2-1 Rocket 4.1 03:45:58 77° NW 03:45:58 77° NW 03:51:14 10° N
CZ-2D R/B 2.3 03:41:41 10° NNE 03:47:00 62° E 03:47:15 61° ESE
Cosmos 1605 Rocket 4.0 03:53:59 58° SSE 03:55:18 78° E 04:01:44 10° N
SL-27 R/B 4.5 03:58:50 26° ENE 03:58:50 26° ENE 04:00:50 10° NE
Cosmos 2221 3.1 04:07:30 50° NNW 04:07:30 50° NNW 04:10:53 10° N
MOS 1 Rocket 3.2 04:03:04 10° NNE 04:07:17 74° E 04:07:17 74° E
IRS-1D 3.4 04:04:51 10° NNE 04:10:02 85° WNW 04:10:29 75° SSW
Cosmos 2082 Rocket 4.5 04:08:00 10° SE 04:11:32 17° E 04:15:06 10° ENE
Cosmos 540 Rocket 4.0 04:13:30 43° WNW 04:13:30 43° WNW 04:18:18 10° N
Cosmos 1666 Rocket 3.8 04:09:31 10° N 04:13:58 65° E 04:14:34 57° SE
Cosmos 1805 Rocket 3.7 04:11:09 10° N 04:15:01 65° NNW 04:15:01 65° NNW
ADEOS II 4.2 04:12:23 10° NE 04:16:18 21° E 04:20:13 10° SE
Cosmos 1315 Rocket 3.0 04:14:40 10° N 04:18:35 69° ENE 04:18:35 69° ENE
Spot 4 Rocket 3.9 04:13:57 10° N 04:19:06 70° WNW 04:19:36 65° WSW
Cosmos 1726 2.5 04:22:35 61° NNE 04:22:35 61° NNE 04:25:45 10° N
Cosmos 292 Rocket 3.6 04:23:48 74° SW 04:24:13 85° WNW 04:29:05 10° NNE
ADEOS 3.4 04:21:58 10° NNE 04:27:12 81° WNW 04:28:18 57° SSW
Tiangong 2 3.6 04:30:19 16° ESE 04:30:19 16° ESE 04:31:22 10° E
Cosmos 1447 Rocket 4.4 04:27:41 10° N 04:33:52 76° W 04:36:56 32° S
Cosmos 2100 Rocket 4.3 04:29:51 23° S 04:33:55 67° E 04:40:15 10° NNE
CZ-2D R/B 3.2 04:37:08 10° NNE 04:41:09 86° ESE 04:41:45 63° S
Okean O Rocket 4.1 04:38:59 10° NE 04:42:09 19° E 04:45:18 10° SE
Shenzhou-11 Module 3.7 04:43:41 26° ESE 04:43:41 26° ESE 04:45:34 10° E
UNKNOWN OBJECT B 2.8 04:39:16 10° N 04:43:20 78° WNW 04:43:54 64° SW
MOZ.5/SAFIR/RUBIN 5/SL-8 3.7 04:42:46 51° SSW 04:43:40 62° W 04:48:19 10° NNW
Meteor 2-17 Rocket 4.4 04:41:58 30° S 04:45:12 89° W 04:51:21 10° N
Sich 1 3.1 04:41:03 10° NNW 04:45:21 55° W 04:45:34 54° WSW
Cosmos 2285 Rocket 4.2 04:43:29 38° WSW 04:45:40 55° WNW 04:51:58 10° NNE
In-Cosmos 22 Rocket 4.2 04:40:17 10° N 04:45:42 77° E 04:51:00 10° SSE
Lacrosse 5 2.6 04:41:29 10° NW 04:46:27 53° NE 04:51:24 10° ESE
Meteor 2-10 4.2 04:47:50 29° S 04:50:52 89° W 04:56:32 10° N
Cosmos 2173 Rocket 4.0 04:52:39 21° S 04:57:04 89° W 05:03:29 10° N
USA 229 DEB 4.3 04:50:58 10° NW 04:57:22 36° WSW 05:03:52 10° S
USA 229 4.3 04:51:04 10° NW 04:57:29 36° WSW 05:04:00 10° S
USA 161 3.2 05:01:24 18° N 05:01:24 18° N 05:02:04 10° N
NOSS 3-1 (A) 4.0 04:55:09 10° NW 05:02:49 84° WSW 05:11:18 10° SSE
Cosmos 1538 Rocket 4.1 05:01:39 33° SW 05:03:59 63° WNW 05:09:19 10° NNE
Cosmos 1833 Rocket 3.5 05:01:08 13° S 05:05:52 48° ESE 05:11:17 10° NE
Cosmos 1470 Rocket 3.4 05:02:12 10° N 05:06:32 81° W 05:10:11 14° S
Resurs 1-4 Rocket 3.3 05:04:52 10° N 05:09:06 25° WNW 05:10:36 22° W
COSMOS 2406 4.3 05:07:20 23° W 05:09:32 29° NW 05:14:29 10° N
OE (NEXTSAT) 4.3 05:10:50 45° SW 05:11:48 75° SSE 05:15:23 10° ENE
Cosmos 923 Rocket 4.2 05:08:52 18° S 05:12:44 72° ESE 05:17:59 10° NNE
Cosmos 1515 Rocket 3.5 05:13:09 25° SSW 05:15:38 70° W 05:20:03 10° N
Cosmos 1633 Rocket 3.8 05:12:53 10° NNW 05:16:44 31° W 05:17:29 29° WSW
Cosmos 1459 Rocket 4.0 05:13:16 20° SSW 05:17:31 61° W 05:23:32 10° N
SL-16 R/B 3.8 05:18:24 19° W 05:18:49 19° W 05:23:10 10° NW
Cosmos 1300 3.7 05:18:29 27° W 05:19:00 28° WNW 05:22:21 10° NNW
Cosmos 2228 Rocket 3.3 05:16:58 27° SW 05:19:09 53° W 05:23:30 10° N
ARIANE 5 R/B 3.9 05:16:15 10° NNW 05:20:22 24° WNW 05:22:14 20° W
Cosmos 1980 Rocket 3.9 05:16:09 10° N 05:21:18 36° ENE 05:26:25 10° ESE
Cosmos 482 Debris 3.3 05:21:57 41° W 05:22:38 62° SW 05:26:12 10° SE
MOS 1-B 4.3 05:18:00 10° NNE 05:23:52 85° WNW 05:29:31 11° SSW
CZ-2D R/B 3.7 05:22:53 10° NNW 05:26:33 19° WNW 05:28:34 16° W
Cosmos 2278 3.6 05:23:34 10° NNW 05:29:11 68° WSW 05:34:47 10° SSE
Cosmos 1680 Rocket 3.6 05:26:01 12° SSW 05:31:00 80° ESE 05:36:21 10° NNE
NOSS 3-1 (C) 4.3 05:23:56 10° NW 05:31:13 47° WSW 05:39:09 10° S
SL-27 R/B 4.4 05:32:32 14° WNW 05:33:04 14° WNW 05:34:58 10° NNW
Cosmos 2084 4.4 05:31:03 11° S 05:34:41 39° ESE 05:38:21 10° NE
Cosmos 1455 2.1 05:31:15 11° S 05:34:50 89° W 05:38:37 10° N
Cosmos 1697 Rocket 2.9 05:30:43 10° NNW 05:36:25 77° ENE 05:42:04 10° SSE
Cosmos 2112 Rocket 4.2 05:32:56 10° SSW 05:38:14 80° ESE 05:43:36 10° NNE
CZ-4B DEB 4.4 05:41:16 10° NNE 05:46:50 78° ESE 05:52:19 10° S
PSLV R/B 3.5 05:43:21 10° N 05:47:42 77° WNW 05:51:59 10° SSW
Lacrosse 4 Rocket 4.4 05:45:50 10° SE 05:47:50 13° ESE 05:49:50 10° ENE
BREEZE M DEB (TANK) 3.0 05:47:29 21° SW 05:47:55 22° SSW 05:50:17 10° SSE
Abrixas 4.4 05:49:41 12° SSW 05:49:41 12° SSW 05:50:14 10° S
Cosmos 2233 Rocket 4.1 05:47:50 10° S 05:53:57 80° E 06:00:07 10° N
Cosmos 2082 Rocket 2.2 05:49:26 10° SSW 05:54:59 67° WNW 06:00:37 10° NNE
Cosmos 2056 Rocket 4.4 05:50:36 10° NNW 05:55:54 56° ENE 06:01:13 10° SE
ADEOS II 2.4 05:51:14 10° N 05:56:18 50° WNW 06:01:20 10° SW
PSLV R/B 4.2 05:57:34 14° WSW 05:59:47 28° SSW 06:02:38 10° SE
Cosmos 2016 Rocket 4.4 05:54:20 10° SW 06:00:03 40° WNW 06:05:46 10° N
Meteor PRIRODA 4.0 05:56:33 10° NNE 06:00:13 67° E 06:03:50 10° S
COSMOS 2487 3.3 05:59:47 12° SW 06:02:41 34° WNW 06:05:58 10° N
Tiangong 2 1.2 06:02:41 13° WSW 06:05:32 69° SSE 06:08:45 10° E
Cosmos 1151 Rocket 4.3 06:05:00 10° SW 06:08:25 23° WNW 06:11:52 10° NNW
Cosmos 1869 3.2 06:05:43 10° SSW 06:09:40 76° W 06:13:40 10° N
Cosmos 2360 4.5 06:05:50 10° NNW 06:11:33 77° ENE 06:17:14 10° SSE
CZ-4B R/B 3.2 06:06:11 10° N 06:11:38 70° WNW 06:16:57 10° SSW
CZ-2C R/B 3.6 06:07:19 10° SSE 06:11:45 84° WSW 06:16:16 10° NNW
Meteor 2-3 Rocket 4.4 06:07:13 10° NNW 06:12:14 33° W 06:17:16 10° SSW
BREEZE-M DEB (TANK) 1.6 06:10:26 10° WNW 06:13:11 78° NNE 06:14:57 10° ESE
Meteor 2-12 Rocket 4.4 06:07:31 10° SSW 06:13:33 73° W 06:19:38 10° N
Cosmos 1725 Rocket 4.4 06:08:19 10° SSW 06:14:11 45° WNW 06:20:06 10° N
Meteor 1-31 Rocket 2.9 06:11:55 10° NNE 06:15:52 86° E 06:19:49 10° SSW
Cosmos 1892 4.2 06:14:08 10° NW 06:16:50 18° W 06:19:31 10° SW
Okean O Rocket 2.2 06:14:32 10° N 06:18:41 40° WNW 06:22:47 10° SW
Okean-O 3.7 06:14:31 10° NNE 06:18:51 50° E 06:23:09 10° S
Landsat 4 4.1 06:15:21 10° S 06:18:53 41° W 06:22:28 10° NNW
Shenzhou-11 Module 2.0 06:15:54 10° W 06:19:00 90° S 06:22:06 10° E
Cosmos 1707 Rocket 3.6 06:15:37 10° SSW 06:19:59 68° W 06:24:23 10° N
